Regional Weather Roundup
Issued by NWS

Home | Current Version | Previous Version | Graphics & Text | Print | Product List | Glossary On
Versions: 1 2 3 4 5 6 7 8 9 10 11 12 13 14 15 16 17 18 19 20 21 22 23 24 25 26 27 28 29 30 31 32 33 34 35 36 37 38 39 40 41 42 43 44 45 46 47 48 49 50
634
ASUS43 KBIS 282210
RWRND

NORTH DAKOTA REGIONAL WEATHER ROUNDUP
NATIONAL WEATHER SERVICE BISMARCK ND
500 PM CDT SUN AUG 28 2016

NOTE: "FAIR" INDICATES FEW OR NO CLOUDS BELOW 12,000 FEET WITH NO
SIGNIFICANT WEATHER AND/OR OBSTRUCTIONS TO VISIBILITY.


NDZ001>003-009>011-017-282300-
NORTHWEST NORTH DAKOTA

CITY           SKY/WX    TMP DP  RH WIND       PRES   REMARKS
WILLISTON      CLOUDY    88  45  22 N14       29.94R
MINOT          SUNNY     93  53  25 S9        29.86S HX  90
MINOT AFB      SUNNY     93  50  22 S8        29.84S HX  90
$$

NDZ018>021-031>035-040>046-282300-
SOUTHWEST NORTH DAKOTA

CITY           SKY/WX    TMP DP  RH WIND       PRES   REMARKS
BISMARCK       SUNNY     89  64  43 SE7       29.90R HX  90
DICKINSON      SUNNY     93  31  11 NW14G21   29.91R
GARRISON         N/A     89  58  34 S7        29.89S
HETTINGER ARPT SUNNY     95  40  14 W10       29.94S HX  91
$$

NDZ004>008-012>016-024-026-027-054-282300-
NORTHEAST NORTH DAKOTA

CITY           SKY/WX    TMP DP  RH WIND       PRES   REMARKS
GRAND FORKS    CLOUDY    82  68  62 SE13      29.94S
GRND FRKS AFB  PTSUNNY   80  68  67 S10       29.94F
DEVILS LAKE    SUNNY     80  69  69 SE12      29.93S
$$

NDZ022-023-025-028>030-036>039-047>053-282300-
SOUTHEAST NORTH DAKOTA

CITY           SKY/WX    TMP DP  RH WIND       PRES   REMARKS
FARGO          SUNNY     88  71  57 S17G25    29.91F HX  94
JAMESTOWN      MOSUNNY   86  71  60 S12       29.91F HX  91
$$





USA.gov is the U.S. government's official web portal to all federal, state and local government web resources and services.